This is the latest recevied weather packets stored in our database for station/object KC5DAQ-27. If no packets are shown the sender has not sent any weather packets the latest 10 day(s).
| Time | Temp. | Humidity | Pressure | Rain* | Wind** | Luminosity | Snow |
|---|---|---|---|---|---|---|---|
| 1778333379 | 23.89° C | 98% | 1001.4 hPa | 0 mm | - | 102 W/m² | - |
| 1778333318 | 23.89° C | 98% | 1001.6 hPa | 0 mm | - | 104 W/m² | - |
| 1778333259 | 23.89° C | 98% | 1001.7 hPa | 0 mm | - | 106 W/m² | - |
| 1778333199 | 23.89° C | 98% | 1001.8 hPa | 0 mm | - | 107 W/m² | - |
| 1778333138 | 23.89° C | 98% | 1001.7 hPa | 0 mm | - | 107 W/m² | - |
| 1778333079 | 23.89° C | 98% | 1001.8 hPa | 0 mm | - | 107 W/m² | - |
| 1778333019 | 23.89° C | 98% | 1001.8 hPa | 0 mm | - | 109 W/m² | - |
| 1778332959 | 23.89° C | 98% | 1001.8 hPa | 0 mm | - | 109 W/m² | - |
| 1778332898 | 23.89° C | 98% | 1001.8 hPa | 0 mm | - | 111 W/m² | - |
| 1778332838 | 23.89° C | 98% | 1001.8 hPa | 0 mm | - | 111 W/m² | - |
| 1778332777 | 23.89° C | 98% | 1001.8 hPa | 0 mm | - | 113 W/m² | - |
| 1778332715 | 23.89° C | 98% | 1001.9 hPa | 0 mm | - | 116 W/m² | - |
| 1778332655 | 23.89° C | 98% | 1001.8 hPa | 0 mm | - | 118 W/m² | - |
| 1778332593 | 23.89° C | 98% | 1001.8 hPa | 0 mm | - | 121 W/m² | - |
| 1778332531 | 23.89° C | 97% | 1001.8 hPa | 0 mm | - | 125 W/m² | - |
| 1778332472 | 23.89° C | 98% | 1001.8 hPa | 0 mm | - | 128 W/m² | - |
| 1778332411 | 23.89° C | 97% | 1001.8 hPa | 0 mm | - | 132 W/m² | - |
| 1778332352 | 23.89° C | 98% | 1001.8 hPa | 0 mm | - | 142 W/m² | - |
| 1778332291 | 23.89° C | 98% | 1001.8 hPa | 0 mm | - | 146 W/m² | - |
| 1778332231 | 23.89° C | 97% | 1001.8 hPa | 0 mm | - | 143 W/m² | - |
| 1778332172 | 23.89° C | 97% | 1001.8 hPa | 0 mm | - | 143 W/m² | - |
| 1778332112 | 23.89° C | 97% | 1001.8 hPa | 0 mm | - | 132 W/m² | - |
| 1778332051 | 23.89° C | 97% | 1001.8 hPa | 0 mm | - | 98 W/m² | - |
| 1778331992 | 23.89° C | 97% | 1001.8 hPa | 0 mm | - | 81 W/m² | - |
| 1778331932 | 23.89° C | 97% | 1001.7 hPa | 0 mm | - | 72 W/m² | - |
* Rain latest hour (hover to see other rain measurements)
** Current wind speed in m/s (hover to see current wind gust speed)